Startseite
Über Mich
AHP4
Galerie
Sehschlangen
Tourenbuch
Bookmarks
Elektronik
Bewertung
Geschichten
[Tagesmessung] [Jahreswerte] [Information]

Messwerte vom 27.12.2021

Die letzten Messwerte von 23:58:46 Uhr:
KategorieMesswert
Temperatur [°C]1
Luftdruck [mBar]985
Sonneneinstrahlung0
Wind [km/h]2 aus Nord
Niederschlag [l/m²]0
rel.Luftfeucht.96.6%
CO2 [ppm]409

Diagramme
Messwerte vom 27.12.2021
Tagesaggregation
KategorieMinimumMaximumSchnittSumme
Temperatur [°C]-52-0.9604
Luftdruck [mBar]985993988.2688
Sonneneinstrahlung22057.3813
Wind [km/h]9
rF [%]96.296.696.6
Niederschlag [l/m²]0.2575
CO2 [ppm]407779636.7
Einordnung alsFrosttag
Kalter Tag

Messungen an benachbarten Tagen: Zur Jahresaggregation 2021
Tabelle aller Messwerte
UhrzeitTemperatur [°C]Luftdruck [mBar]SonneWind [km/h]RichtungRegen [l/m²]rF [%]CO2 [ppm]
00:01:46 -5 993 0 1 0 96.2 629
00:04:46 -5 992 0 0 S 0 96.4 632
00:07:46 -5 991 0 2 O 0 96.4 629
00:10:47 -5 992 0 1 O 0 96.5 635
00:13:45 -5 991 0 0 S 0 96.4 636
00:16:46 -5 991 0 2 O 0 96.5 636
00:19:49 -5 992 0 2 SO 0 96.6 632
00:22:45 -5 992 0 2 NO 0 96.5 627
00:25:48 -5 992 0 0 NO 0 96.6 623
00:28:47 -5 991 0 1 O 0 96.6 629
00:31:46 -5 991 0 2 O 0 96.5 635
00:34:44 -5 993 0 1 O 0 96.5 638
00:37:47 -5 992 0 2 SO 0 96.6 643
00:40:46 -5 992 0 2 O 0 96.6 641
00:43:46 -5 992 0 0 O 0 96.5 638
00:46:47 -5 991 0 2 S 0 96.5 636
00:49:44 -4 992 0 0 O 0 96.6 641
00:52:47 -5 991 0 2 SO 0 96.5 641
00:55:48 -5 992 0 0 NO 0 96.5 650
00:58:44 -5 991 0 1 O 0 96.4 645
01:01:46 -5 992 0 1 0 96.5 645
01:04:47 -4 991 0 2 NO 0 96.6 641
01:07:47 -4 991 0 1 SO 0 96.6 644
01:10:44 -4 991 0 1 O 0 96.6 641
01:13:47 -4 991 0 2 SO 0 96.6 641
01:16:44 -4 991 0 0 O 0 96.6 635
01:19:46 -4 991 0 0 SO 0 96.6 635
01:22:46 -4 992 0 2 O 0 96.6 630
01:25:46 -4 991 0 1 O 0 96.6 629
01:28:49 -4 991 0 0 O 0 96.6 633
01:31:46 -4 992 0 1 O 0 96.6 638
01:34:46 -4 991 0 1 SW 0 96.6 638
01:37:47 -4 991 0 1 NO 0 96.6 640
01:40:47 -4 991 0 3 NO 0 96.6 633
01:43:47 -4 991 0 2 O 0 96.6 630
01:46:45 -4 991 0 0 NO 0 96.6 630
01:49:46 -4 991 0 0 W 0 96.6 630
01:52:48 -4 991 0 2 NO 0 96.6 639
01:55:45 -4 991 0 0 O 0 96.6 635
01:58:45 -4 991 0 0 O 0 96.6 650
02:01:48 -4 991 0 2 SO 0 96.6 647
02:04:46 -4 991 0 3 NO 0 96.6 656
02:07:46 -4 991 0 0 S 0 96.6 645
02:10:48 -4 991 0 1 SW 0 96.6 645
02:13:46 -4 991 0 0 O 0 96.6 648
02:16:50 -4 991 0 1 S 0 96.6 654
02:19:47 -4 991 0 2 O 0 96.6 652
02:22:47 -4 991 0 0 SO 0 96.6 648
02:25:49 -4 991 0 1 NO 0 96.6 649
02:28:47 -4 991 0 4 SO 0 96.6 657
02:31:47 -4 991 0 1 N 0 96.6 656
02:34:45 -4 991 0 1 O 0 96.6 656
02:37:47 -4 991 0 0 NO 0 96.6 648
02:40:47 -4 991 0 0 O 0 96.6 653
02:43:45 -4 991 0 0 O 0 96.6 652
02:46:45 -4 991 0 0 O 0 96.6 646
02:49:48 -4 991 0 2 N 0 96.6 639
02:52:47 -4 991 0 1 O 0 96.6 632
02:55:46 -4 991 0 2 SO 0 96.6 645
02:58:48 -4 991 0 1 NW 0 96.6 642
03:01:45 -4 991 0 2 O 0 96.6 648
03:04:48 -4 990 0 3 SO 0 96.6 641
03:07:47 -4 991 0 2 NO 0 96.6 651
03:10:46 -4 991 0 1 NO 0 96.6 648
03:13:45 -4 991 0 0 O 0 96.6 650
03:16:47 -4 991 0 1 O 0 96.6 644
03:19:45 -4 991 0 3 SO 0 96.6 649
03:22:47 -4 991 0 3 O 0 96.6 648
03:25:48 -4 991 0 1 NO 0 96.6 650
03:28:48 -4 991 0 0 NO 0 96.6 651
03:31:46 -4 991 0 4 N 0 96.6 647
03:34:46 -4 991 0 0 SO 0 96.6 647
03:37:45 -4 991 0 3 O 0 96.6 641
03:40:47 -4 991 0 2 SO 0 96.6 649
03:43:48 -4 990 0 0 SO 0 96.6 653
03:46:44 -4 990 0 0 S 0 96.6 651
03:49:48 -4 991 0 0 SO 0 96.6 644
03:52:47 -4 991 0 1 SO 0 96.6 638
03:55:46 -4 991 0 0 NO 0 96.6 641
03:58:47 -4 991 0 1 SO 0 96.6 647
04:01:49 -4 991 0 0 S 0 96.6 647
04:04:47 -4 991 0 2 SO 0 96.6 646
04:07:45 -4 991 0 1 O 0 96.6 644
04:10:48 -4 991 0 0 NW 0 96.6 644
04:13:45 -4 990 0 1 O 0 96.6 648
04:16:45 -4 990 0 2 S 0 96.6 647
04:19:46 -4 991 0 1 SW 0 96.6 649
04:22:46 -4 991 0 1 O 0 96.6 649
04:25:47 -3 991 0 1 O 0 96.6 656
04:28:50 -3 990 0 3 W 0 96.6 656
04:31:48 -3 990 0 2 SW 0 96.6 652
04:34:46 -3 990 0 0 N 0 96.6 651
04:37:47 -3 990 0 1 SW 0 96.6 652
04:40:47 -3 990 0 0 W 0 96.6 647
04:43:46 -3 990 0 0 SO 0 96.6 645
04:46:47 -3 990 0 1 NO 0 96.6 648
04:49:49 -3 990 0 0 NO 0 96.6 647
04:52:46 -3 990 0 1 SW 0 96.6 646
04:55:47 -3 990 0 1 O 0 96.6 648
04:58:46 -3 990 0 1 W 0 96.6 650
05:01:46 -3 990 0 2 SW 0 96.6 649
05:04:47 -3 990 0 1 NO 0 96.6 644
05:07:47 -3 990 0 2 SO 0 96.6 652
05:10:47 -3 990 0 1 SO 0 96.6 649
05:13:45 -3 990 0 1 NW 0 96.6 647
05:16:49 -3 990 0 2 SO 0 96.6 656
05:19:47 -3 990 0 2 O 0 96.6 658
05:22:47 -3 989 0 3 S 0 96.6 657
05:25:47 -3 990 0 2 NO 0 96.6 658
05:28:46 -3 990 0 0 O 0 96.6 656
05:31:47 -3 991 0 0 NO 0 96.6 653
05:34:49 -3 990 0 2 O 0 96.6 647
05:37:47 -3 990 0 0 S 0 96.6 641
05:40:46 -3 990 0 1 S 0 96.6 642
05:43:47 -3 990 0 1 S 0 96.6 654
05:46:49 -3 990 0 0 NO 0 96.6 655
05:49:46 -3 990 0 0 S 0 96.6 651
05:52:46 -3 990 0 0 NO 0 96.6 647
05:55:47 -3 990 0 0 N 0 96.6 645
05:58:47 -3 990 0 2 NO 0 96.6 645
06:01:47 -3 990 0 1 0 96.6 648
06:04:48 -3 990 0 1 SO 0 96.6 650
06:07:47 -3 989 0 1 S 0 96.6 653
06:10:50 -3 989 0 0 SO 0 96.6 656
06:13:47 -3 989 0 0 NO 0 96.6 656
06:16:52 -3 989 0 2 SO 0 96.6 659
06:19:47 -3 990 0 0 O 0 96.6 656
06:22:46 -3 990 0 1 O 0 96.6 656
06:25:50 -3 989 0 1 NO 0 96.6 653
06:28:47 -3 990 0 0 O 0 96.6 648
06:31:49 -3 990 0 0 NO 0 96.6 651
06:34:48 -3 990 0 2 NO 0 96.6 656
06:37:47 -3 990 0 2 0 96.6 655
06:40:46 -3 990 0 1 O 0 96.6 650
06:43:49 -3 989 0 0 NO 0 96.6 658
06:46:46 -3 989 0 1 O 0 96.6 655
06:49:47 -3 989 0 1 SO 0 96.6 653
06:52:47 -4 989 0 1 SO 0 96.6 652
06:55:47 -3 989 0 2 O 0 96.6 653
06:58:47 -3 989 0 3 NO 0 96.6 649
07:01:47 -3 989 0 0 O 0 96.6 644
07:04:45 -3 989 0 1 N 0 96.6 644
07:07:48 -3 989 0 1 SO 0 96.6 647
07:10:49 -3 989 0 0 SO 0 96.6 650
07:13:48 -3 989 0 1 NO 0 96.6 647
07:16:47 -3 989 0 1 O 0 96.6 638
07:19:50 -3 989 0 0 O 0 96.6 644
07:22:48 -3 989 0 2 O 0 96.6 641
07:25:46 -3 989 0 1 O 0 96.6 648
07:28:48 -3 989 0 2 NO 0 96.6 645
07:31:49 -3 988 0 0 S 0 96.6 647
07:34:48 -3 989 0 1 O 0 96.6 647
07:37:47 -3 989 0 1 N 0 96.6 645
07:40:48 -3 989 0 0 SO 0 96.6 639
07:43:50 -3 990 0 2 NO 0 96.6 648
07:46:47 -3 989 0 0 S 0 96.6 651
07:49:46 -3 989 0 1 NO 0 96.6 648
07:52:48 -3 989 0 1 SO 0 96.6 656
07:55:49 -3 989 0 2 NO 0 96.6 650
07:58:48 -3 989 3 2 S 0 96.6 650
08:01:46 -3 989 5 2 O 0 96.6 650
08:04:47 -3 989 8 1 O 0 96.6 655
08:07:49 -3 989 12 0 SO 0 96.6 649
08:10:48 -3 990 17 1 NO 0 96.6 648
08:13:45 -3 989 24 0 O 0 96.6 652
08:16:46 -3 989 31 1 0 96.6 650
08:19:47 -3 989 39 0 SO 0 96.6 637
08:22:48 -3 989 49 0 O 0 96.6 659
08:25:47 -3 989 58 1 S 0 96.6 661
08:28:46 -3 989 68 2 O 0 96.6 661
08:31:48 -3 989 76 0 S 0 96.6 661
08:34:49 -3 988 84 2 NO 0 96.6 662
08:37:47 -3 988 93 1 NO 0 96.6 667
08:40:50 -3 988 100 1 O 0 96.6 668
08:43:51 -3 988 108 0 NO 0 96.6 679
08:46:48 -3 988 116 1 O 0 96.6 667
08:49:48 -3 989 124 0 O 0 96.6 656
08:52:48 -3 989 131 1 SO 0 96.6 638
08:55:50 -3 989 134 1 SO 0 96.6 629
08:58:49 -3 989 143 1 SO 0 96.6 621
09:01:49 -2 989 146 0 N 0 96.6 626
09:04:47 -2 989 149 0 NO 0 96.6 621
09:07:47 -2 988 151 1 SO 0 96.6 618
09:10:49 -2 988 152 0 SO 0 96.6 618
09:13:48 -2 988 155 1 O 0 96.6 624
09:16:49 -2 989 160 2 O 0 96.6 633
09:19:47 -2 989 166 1 O 0 96.6 641
09:22:47 -2 989 168 0 SO 0 96.6 638
09:25:49 -2 989 169 1 N 0 96.6 635
09:28:49 -2 989 169 0 NO 0 96.6 634
09:31:48 -2 988 110 0 SO 0 96.6 597
09:34:50 -2 989 118 0 SO 0 96.6 407
09:37:47 -2 989 165 0 SO 0 96.6 407
09:40:49 -2 989 170 0 NO 0 96.6 454
09:43:47 -2 988 176 1 O 0 96.6 436
09:46:50 -2 989 183 0 SO 0 96.6 463
09:49:49 -2 989 190 0 NO 0 96.6 448
09:52:48 -2 989 195 0 O 0 96.6 474
09:55:46 -2 988 198 1 O 0 96.6 466
09:58:49 -2 989 202 0 SO 0 96.6 460
10:01:48 -2 988 198 3 SO 0 96.6 466
10:04:47 -1 989 199 0 SO 0 96.6 477
10:07:48 -1 989 200 0 S 0 96.6 489
10:10:47 -1 988 198 2 O 0 96.6 494
10:13:50 -1 989 198 1 NO 0 96.6 495
10:16:50 -1 988 197 0 O 0 96.6 492
10:19:48 -1 989 202 1 O 0 96.6 492
10:22:49 -1 988 199 2 SO 0 96.6 495
10:25:48 -1 988 197 2 NO 0 96.6 500
10:28:45 -1 989 195 1 O 0 96.6 541
10:31:48 -1 988 193 2 NO 0 96.6 541
10:34:46 -1 988 190 1 SO 0 96.6 545
10:37:49 -1 988 190 0 SO 0 96.6 538
10:40:47 -1 988 192 0 N 0 96.6 539
10:43:48 -1 988 195 3 NO 0 96.6 536
10:46:50 -1 989 197 0 SO 0 96.6 536
10:49:49 -1 988 201 1 SO 0 96.6 548
10:52:49 -1 988 203 2 SO 0 96.6 548
10:55:50 -1 988 203 0 NO 0 96.6 550
10:58:46 -1 988 200 0 O 0 96.6 551
11:01:49 -1 987 195 1 SO 0 96.6 564
11:04:48 -1 989 192 1 NO 0 96.6 569
11:07:47 -1 988 193 0 SO 0 96.6 574
11:10:47 -1 988 195 1 N 0 96.6 578
11:13:48 0 988 196 0 NO 0 96.6 583
11:16:47 0 988 197 0 O 0 96.6 591
11:19:48 0 988 200 1 O 0 96.6 592
11:22:49 0 988 206 2 SO 0 96.6 591
11:25:49 0 988 210 2 NO 0 96.6 603
11:28:49 0 987 212 2 SO 0 96.6 619
11:31:47 0 987 211 0 O 0 96.6 632
11:34:46 0 987 209 4 S 0 96.6 639
11:37:47 0 988 216 2 NO 0 96.6 635
11:40:48 0 988 220 0 O 0 96.6 635
11:43:47 0 987 216 0 O 0 96.6 631
11:46:49 1 988 213 2 SO 0 96.6 635
11:49:47 1 988 213 0 SW 0 96.6 641
11:52:47 1 987 215 1 O 0 96.6 653
11:55:48 1 988 216 0 SW 0 96.6 662
11:58:49 1 988 214 0 N 0 96.6 674
12:01:49 1 987 213 4 S 0 96.6 678
12:04:46 1 988 211 1 O 0 96.6 688
12:07:47 1 988 208 1 N 0 96.6 702
12:10:49 1 988 210 2 SO 0 96.6 718
12:13:49 1 987 212 2 NO 0 96.6 718
12:16:49 1 988 210 1 SO 0 96.6 708
12:19:47 1 988 207 4 O 0 96.6 706
12:22:49 1 989 204 2 O 0 96.6 709
12:25:48 1 988 204 3 SO 0 96.6 712
12:28:48 1 988 206 1 O 0 96.6 711
12:31:49 1 988 212 1 O 0 96.6 708
12:34:49 1 988 217 2 NW 0 96.6 718
12:37:49 1 987 216 0 O 0.2575 96.6 709
12:40:47 1 987 214 2 S 0 96.6 713
12:43:47 1 988 214 2 O 0 96.6 706
12:46:47 1 987 217 0 NO 0 96.6 709
12:49:51 1 987 216 2 SO 0 96.6 713
12:52:47 1 987 215 4 S 0 96.6 720
12:55:47 1 988 215 4 O 0 96.6 720
12:58:48 1 987 213 1 SO 0 96.6 718
13:01:48 1 987 213 0 0 96.6 729
13:04:49 1 987 211 1 SW 0 96.6 726
13:07:46 1 988 210 0 O 0 96.6 724
13:10:49 1 987 211 0 SO 0 96.6 724
13:13:46 1 987 212 0 SO 0 96.6 729
13:16:49 1 987 213 4 SO 0 96.6 723
13:19:49 1 987 212 1 NO 0 96.6 729
13:22:46 1 987 209 0 O 0 96.6 736
13:25:45 1 987 205 1 O 0 96.6 734
13:28:46 1 987 199 2 O 0 96.6 735
13:31:46 1 987 199 0 W 0 96.6 731
13:34:45 1 987 197 0 SO 0 96.6 741
13:37:45 1 987 194 0 O 0 96.6 748
13:40:48 1 987 194 2 NO 0 96.6 753
13:43:47 1 987 198 0 N 0 96.6 754
13:46:46 1 987 202 2 0 96.6 758
13:49:48 1 987 203 2 SO 0 96.6 759
13:52:52 1 987 199 2 SO 0 96.6 755
13:55:47 1 987 197 0 O 0 96.6 749
13:58:47 1 987 195 0 O 0 96.6 744
14:01:47 1 987 192 0 O 0 96.6 744
14:04:48 1 987 191 0 SO 0 96.6 747
14:07:50 1 987 190 1 NO 0 96.6 748
14:10:46 1 987 189 0 O 0 96.6 754
14:13:48 1 987 188 0 O 0 96.6 755
14:16:48 1 988 188 0 0 96.6 759
14:19:48 1 987 189 0 O 0 96.6 764
14:22:47 1 987 189 0 NO 0 96.6 763
14:25:48 1 987 189 0 SO 0 96.6 758
14:28:47 1 987 189 0 O 0 96.6 757
14:31:46 1 987 191 0 O 0 96.6 759
14:34:49 1 987 189 0 NO 0 96.6 756
14:37:49 1 987 185 0 SO 0 96.6 752
14:40:46 1 987 188 0 O 0 96.6 754
14:43:48 1 987 185 1 O 0 96.6 756
14:46:48 1 987 181 0 SO 0 96.6 752
14:49:47 1 987 177 0 SO 0 96.6 758
14:52:49 1 987 176 0 O 0 96.6 765
14:55:47 1 987 171 2 NO 0 96.6 764
14:58:49 1 987 162 0 O 0 96.6 766
15:01:45 1 987 160 0 O 0 96.6 764
15:04:49 1 987 157 2 NO 0 96.6 766
15:07:48 1 987 162 0 SO 0 96.6 770
15:10:48 1 987 165 0 SW 0 96.6 773
15:13:49 1 987 160 0 O 0 96.6 769
15:16:47 1 987 156 0 SO 0 96.6 765
15:19:48 1 987 150 0 SW 0 96.6 764
15:22:46 1 987 140 2 O 0 96.6 779
15:25:45 1 987 133 2 O 0 96.6 779
15:28:47 1 987 130 0 O 0 96.6 775
15:31:46 1 987 126 2 N 0 96.6 765
15:34:46 1 987 124 1 O 0 96.6 758
15:37:46 1 987 109 0 N 0 96.6 762
15:40:49 1 987 100 2 SO 0 96.6 758
15:43:45 1 987 89 0 S 0 96.6 755
15:46:47 1 987 84 1 NO 0 96.6 752
15:49:48 1 987 81 2 SO 0 96.6 749
15:52:46 1 987 76 3 S 0 96.6 743
15:55:48 1 987 68 3 NO 0 96.6 739
15:58:46 1 987 59 2 O 0 96.6 723
16:01:47 1 987 52 2 NO 0 96.6 692
16:04:48 1 987 45 3 O 0 96.6 682
16:07:46 1 987 39 3 O 0 96.6 705
16:10:51 1 987 34 2 NO 0 96.6 723
16:13:49 1 987 30 2 O 0 96.6 712
16:16:47 1 987 28 1 NO 0 96.6 705
16:19:49 1 987 23 1 NO 0 96.6 711
16:22:46 1 987 17 1 SO 0 96.6 715
16:25:48 1 987 13 0 O 0 96.6 718
16:28:46 1 987 10 1 O 0 96.6 723
16:31:46 1 987 8 0 O 0 96.6 726
16:34:46 1 987 5 5 O 0 96.6 729
16:37:46 1 987 3 2 O 0 96.6 732
16:40:46 1 987 0 4 SO 0 96.6 735
16:43:46 1 986 0 3 O 0 96.6 736
16:46:45 1 987 0 1 NO 0 96.6 739
16:49:44 1 987 0 1 S 0 96.6 741
16:52:45 1 987 0 0 NO 0 96.6 736
16:55:45 1 987 0 2 S 0 96.6 739
16:58:46 1 987 0 0 SO 0 96.6 738
17:01:45 1 987 0 1 SO 0 96.6 741
17:04:44 1 987 0 3 O 0 96.6 743
17:07:46 1 987 0 1 SO 0 96.6 750
17:10:46 1 987 0 0 SO 0 96.6 758
17:13:45 1 987 0 2 S 0 96.6 741
17:16:46 1 987 0 0 SO 0 96.6 728
17:19:46 1 987 0 1 O 0 96.6 722
17:22:45 1 987 0 1 O 0 96.6 735
17:25:48 1 987 0 0 NO 0 96.6 735
17:28:46 1 987 0 0 O 0 96.6 731
17:31:45 1 987 0 1 O 0 96.6 722
17:34:47 1 987 0 0 O 0 96.6 721
17:37:47 1 987 0 0 SO 0 96.6 717
17:40:47 1 987 0 2 NO 0 96.6 715
17:43:45 1 987 0 0 O 0 96.6 720
17:46:46 1 987 0 0 SO 0 96.6 717
17:49:47 1 987 0 1 NO 0 96.6 720
17:52:45 1 987 0 2 NO 0 96.6 711
17:55:46 1 987 0 0 O 0 96.6 705
17:58:46 1 987 0 3 O 0 96.6 702
18:01:47 1 987 0 0 O 0 96.6 702
18:04:47 1 987 0 2 O 0 96.6 711
18:07:47 1 987 0 1 NO 0 96.6 700
18:10:46 1 987 0 3 O 0 96.6 700
18:13:46 1 987 0 3 O 0 96.6 690
18:16:46 1 987 0 0 SO 0 96.6 692
18:19:46 1 987 0 0 0 96.6 690
18:22:48 1 987 0 1 O 0 96.6 681
18:25:47 1 987 0 0 O 0 96.6 678
18:28:46 1 987 0 3 S 0 96.6 671
18:31:46 1 987 0 1 NO 0 96.6 673
18:34:46 1 987 0 0 O 0 96.6 665
18:37:48 1 987 0 0 NO 0 96.6 666
18:40:44 1 987 0 1 N 0 96.6 674
18:43:47 1 988 0 0 O 0 96.6 665
18:46:45 1 987 0 1 O 0 96.6 668
18:49:47 1 987 0 0 O 0 96.6 656
18:52:47 1 987 0 3 SO 0 96.6 647
18:55:48 1 987 0 0 O 0 96.6 648
18:58:44 1 987 0 1 O 0 96.6 647
19:01:46 1 987 0 1 S 0 96.6 653
19:04:46 1 987 0 2 SO 0 96.6 647
19:07:46 1 987 0 3 O 0 96.6 649
19:10:49 1 987 0 2 NW 0 96.6 650
19:13:48 1 987 0 1 O 0 96.6 646
19:16:44 1 987 0 2 O 0 96.6 639
19:19:47 1 987 0 5 S 0 96.6 638
19:22:45 1 987 0 3 NO 0 96.6 633
19:25:47 1 987 0 1 NO 0 96.6 629
19:28:46 1 987 0 3 S 0 96.6 635
19:31:46 1 987 0 2 S 0 96.6 639
19:34:47 1 987 0 2 S 0 96.6 632
19:37:49 1 987 0 0 O 0 96.6 632
19:40:46 1 987 0 3 SO 0 96.6 630
19:43:47 1 987 0 3 NO 0 96.6 623
19:46:47 1 987 0 4 NO 0 96.6 620
19:49:44 1 987 0 9 S 0 96.6 624
19:52:46 1 987 0 4 O 0 96.6 624
19:55:48 1 987 0 6 SO 0 96.6 632
19:58:44 1 987 0 1 N 0 96.6 623
20:01:46 1 987 0 1 N 0 96.6 618
20:04:49 1 987 0 2 S 0 96.6 615
20:07:47 1 987 0 4 NO 0 96.6 612
20:10:45 1 987 0 6 O 0 96.6 612
20:13:48 1 987 0 2 NO 0 96.6 609
20:16:46 1 987 0 5 O 0 96.6 612
20:19:46 1 987 0 2 S 0 96.6 601
20:22:46 1 987 0 3 NO 0 96.6 585
20:25:45 1 987 0 5 0 96.6 594
20:28:47 1 987 0 0 NO 0 96.6 600
20:31:45 1 987 0 1 N 0 96.6 603
20:34:46 1 987 0 2 N 0 96.6 607
20:37:47 1 987 0 1 SO 0 96.6 601
20:40:45 1 987 0 3 0 96.6 597
20:43:46 1 986 0 0 SW 0 96.6 592
20:46:47 1 987 0 5 S 0 96.6 589
20:49:45 1 987 0 3 0 96.6 593
20:52:47 1 987 0 4 SO 0 96.6 594
20:55:46 1 987 0 1 O 0 96.6 585
20:58:47 1 987 0 1 NO 0 96.6 586
21:01:45 1 987 0 2 O 0 96.6 583
21:04:49 1 987 0 3 SO 0 96.6 582
21:07:47 1 987 0 2 NW 0 96.6 580
21:10:51 1 986 0 4 NO 0 96.6 582
21:13:45 1 987 0 1 S 0 96.6 582
21:16:46 1 986 0 2 O 0 96.6 590
21:19:46 1 987 0 3 O 0 96.6 583
21:22:48 1 986 0 2 O 0 96.6 583
21:25:46 1 986 0 4 S 0 96.6 574
21:28:45 1 986 0 6 NO 0 96.6 577
21:31:47 2 987 0 5 SO 0 96.6 575
21:34:49 2 987 0 5 N 0 96.6 574
21:37:48 2 986 0 3 SW 0 96.6 575
21:40:48 2 986 0 1 0 96.6 579
21:43:48 2 987 0 4 S 0 96.6 569
21:46:45 2 986 0 2 O 0 96.6 569
21:49:48 2 986 0 6 NW 0 96.6 565
21:52:46 2 986 0 2 N 0 96.6 579
21:55:45 1 986 0 5 O 0 96.6 573
21:58:46 1 986 0 3 SW 0 96.6 571
22:01:46 1 987 0 1 SW 0 96.6 564
22:04:45 1 985 0 3 O 0 96.6 557
22:07:47 1 986 0 1 O 0 96.6 560
22:10:47 1 986 0 3 O 0 96.6 568
22:13:47 1 986 0 2 NW 0 96.6 568
22:16:46 1 986 0 3 NO 0 96.6 439
22:19:47 1 986 0 2 SO 0 96.6 434
22:22:48 1 986 0 2 SW 0 96.6 433
22:25:45 1 986 0 0 S 0 96.6 433
22:28:47 1 985 0 3 NW 0 96.6 442
22:31:46 1 986 0 2 N 0 96.6 433
22:34:47 1 986 0 6 SO 0 96.6 433
22:37:47 1 986 0 6 O 0 96.6 430
22:40:48 1 986 0 3 N 0 96.6 436
22:43:48 1 986 0 2 SO 0 96.6 436
22:46:46 1 986 0 5 NO 0 96.6 431
22:49:44 1 985 0 3 O 0 96.6 424
22:52:45 1 985 0 1 N 0 96.6 422
22:55:49 1 985 0 2 SO 0 96.6 416
22:58:46 1 986 0 0 NO 0 96.6 421
23:01:46 1 986 0 3 SO 0 96.6 416
23:04:46 1 986 0 1 N 0 96.6 415
23:07:46 1 986 0 3 N 0 96.6 416
23:10:48 1 986 0 1 O 0 96.6 419
23:13:46 1 986 0 2 NO 0 96.6 419
23:16:44 1 986 0 1 S 0 96.6 415
23:19:47 1 985 0 0 O 0 96.6 413
23:22:47 1 986 0 5 SO 0 96.6 416
23:25:45 1 986 0 4 O 0 96.6 416
23:28:47 1 986 0 3 SO 0 96.6 416
23:31:46 1 985 0 2 N 0 96.6 413
23:34:45 1 985 0 2 NO 0 96.6 407
23:37:45 1 986 0 1 SO 0 96.6 413
23:40:46 1 985 0 0 O 0 96.6 418
23:43:46 1 985 0 1 S 0 96.6 422
23:46:46 1 985 0 4 O 0 96.6 419
23:49:47 1 985 0 5 SO 0 96.6 413
23:52:48 1 985 0 2 SO 0 96.6 408
23:55:47 1 985 0 9 O 0 96.6 410
23:58:46 1 985 0 2 N 0 96.6 409

Letzte Änderung : 22-Jul-2022
Copyright Jens Köhler, Wolfsburg, Obere Dorfstraße 10d